User: anonymous   Login
Location: Chena
(64.8152°N, 147.9227°W)
Time: 17:43:59
(UTC+00:00)
Language:

AO-27 - Orbit

View from above orbital plane
View from above orbital plane
View from above satellite
View from above satellite

Ground track
Ground track

The orbit data is extracted from the following two-line orbital elements,

1 22825U 93061C   21102.89211738 -.00000011  00000-0  13971-4 0  9991
2 22825  98.9222 118.8845 0007710 219.9629 140.0986 14.30111188436886
Epoch (UTC): 12 April 2021 21:24:38
Eccentricity: 0.0007710
inclination: 98.9222°
perigee height: 786 km
apogee height: 797 km
right ascension of ascending node: 118.8845°
argument of perigee: 219.9629°
revolutions per day: 14.30111188
mean anomaly at epoch: 140.0986°
orbit number at epoch: 43688

The dashed part of the orbit path shows where the satellite is in the earth's shadow,  

DLR